Time,TemperatureF,DewpointF,PressureIn,WindDirection,WindDirectionDegrees,WindSpeedMPH,WindSpeedGustMPH,Humidity,HourlyPrecipIn,Conditions,Clouds,dailyrainin,SoftwareType,DateUTC
2013-03-16 00:00:00,33.0,25.6,29.76,ENE,58,2.0,8.0,74,0.00,,,0.00,Wunderground v.1.15,2013-03-16 04:00:00,
2013-03-16 00:05:00,33.0,25.6,29.76,NNE,28,2.0,8.0,74,0.00,,,0.00,Wunderground v.1.15,2013-03-16 04:05:00,
2013-03-16 00:10:00,32.9,25.5,29.76,NNE,16,3.0,8.0,74,0.00,,,0.00,Wunderground v.1.15,2013-03-16 04:10:00,
2013-03-16 00:15:00,32.9,25.5,29.77,ENE,67,3.0,13.0,74,0.00,,,0.00,Wunderground v.1.15,2013-03-16 04:15:00,
2013-03-16 00:20:00,32.5,26.7,29.77,NE,36,4.0,4.0,79,0.00,,,0.00,Wunderground v.1.15,2013-03-16 04:20:00,
2013-03-16 00:25:00,31.9,27.3,29.77,North,355,5.0,6.0,83,0.00,,,0.00,Wunderground v.1.15,2013-03-16 04:25:00,
2013-03-16 00:30:00,31.5,27.8,29.77,NE,44,5.0,9.0,86,0.00,,,0.00,Wunderground v.1.15,2013-03-16 04:30:00,
2013-03-16 00:35:00,31.2,27.8,29.77,NE,54,4.0,9.0,87,0.00,,,0.00,Wunderground v.1.15,2013-03-16 04:35:00,
2013-03-16 00:45:00,30.9,27.5,29.77,North,9,2.0,8.0,87,0.00,,,0.00,Wunderground v.1.15,2013-03-16 04:45:00,
2013-03-16 00:55:00,30.8,26.8,29.77,NNW,330,2.0,8.0,85,0.00,,,0.00,Wunderground v.1.15,2013-03-16 04:55:00,
2013-03-16 01:00:00,30.9,26.6,29.77,NNE,24,2.0,8.0,84,0.00,,,0.00,Wunderground v.1.15,2013-03-16 05:00:00,
2013-03-16 01:05:00,31.1,26.2,29.77,NE,44,2.0,8.0,82,0.00,,,0.00,Wunderground v.1.15,2013-03-16 05:05:00,
2013-03-16 01:10:00,31.2,26.0,29.77,NNE,32,3.0,3.0,81,0.00,,,0.00,Wunderground v.1.15,2013-03-16 05:10:00,
2013-03-16 01:15:00,31.4,25.6,29.78,NNW,337,3.0,8.0,79,0.00,,,0.00,Wunderground v.1.15,2013-03-16 05:15:00,
2013-03-16 01:20:00,31.5,25.7,29.77,NE,55,3.0,3.0,79,0.00,,,0.00,Wunderground v.1.15,2013-03-16 05:20:00,
2013-03-16 01:25:00,31.6,24.9,29.78,NNE,23,4.0,4.0,76,0.00,,,0.00,Wunderground v.1.15,2013-03-16 05:25:00,
2013-03-16 01:30:00,31.7,24.7,29.78,NNE,23,4.0,4.0,75,0.00,,,0.00,Wunderground v.1.15,2013-03-16 05:30:00,
2013-03-16 01:40:00,31.6,23.9,29.78,NNE,25,5.0,5.0,73,0.00,,,0.00,Wunderground v.1.15,2013-03-16 05:40:00,
2013-03-16 01:45:00,31.6,23.6,29.78,NE,35,5.0,6.0,72,0.00,,,0.00,Wunderground v.1.15,2013-03-16 05:45:00,
2013-03-16 01:50:00,31.6,22.9,29.77,WNW,303,5.0,5.0,70,0.00,,,0.00,Wunderground v.1.15,2013-03-16 05:50:00,
2013-03-16 01:55:00,31.5,22.1,29.77,NNE,30,5.0,12.0,68,0.00,,,0.00,Wunderground v.1.15,2013-03-16 05:55:00,
2013-03-16 02:05:00,31.3,21.6,29.78,NE,47,7.0,7.0,67,0.00,,,0.00,Wunderground v.1.15,2013-03-16 06:05:00,
2013-03-16 02:10:00,31.2,21.5,29.78,North,5,6.0,6.0,67,0.00,,,0.00,Wunderground v.1.15,2013-03-16 06:10:00,
2013-03-16 02:15:00,31.1,21.1,29.78,North,5,4.0,7.0,66,0.00,,,0.00,Wunderground v.1.15,2013-03-16 06:15:00,
2013-03-16 02:20:00,31.1,21.1,29.78,NE,36,5.0,5.0,66,0.00,,,0.00,Wunderground v.1.15,2013-03-16 06:20:00,
2013-03-16 02:30:00,31.0,20.6,29.78,NNE,17,5.0,5.0,65,0.00,,,0.00,Wunderground v.1.15,2013-03-16 06:30:00,
2013-03-16 02:35:00,30.8,20.4,29.78,NE,37,4.0,8.0,65,0.00,,,0.00,Wunderground v.1.15,2013-03-16 06:35:00,
2013-03-16 02:40:00,30.7,20.3,29.79,ENE,61,4.0,8.0,65,0.00,,,0.00,Wunderground v.1.15,2013-03-16 06:40:00,
2013-03-16 02:50:00,30.4,20.0,29.79,North,360,3.0,8.0,65,0.00,,,0.00,Wunderground v.1.15,2013-03-16 06:50:00,
2013-03-16 02:55:00,30.3,19.9,29.79,North,360,2.0,8.0,65,0.00,,,0.00,Wunderground v.1.15,2013-03-16 06:55:00,
2013-03-16 03:00:00,30.1,19.7,29.79,NE,45,3.0,8.0,65,0.00,,,0.00,Wunderground v.1.15,2013-03-16 07:00:00,
2013-03-16 03:05:00,30.0,19.7,29.79,NNE,29,3.0,8.0,65,0.00,,,0.00,Wunderground v.1.15,2013-03-16 07:05:00,
2013-03-16 03:10:00,29.8,19.8,29.80,North,9,3.0,3.0,66,0.00,,,0.00,Wunderground v.1.15,2013-03-16 07:10:00,
2013-03-16 03:15:00,29.7,19.7,29.79,NE,46,4.0,7.0,66,0.00,,,0.00,Wunderground v.1.15,2013-03-16 07:15:00,
2013-03-16 03:20:00,29.5,19.5,29.79,NE,36,3.0,8.0,66,0.00,,,0.00,Wunderground v.1.15,2013-03-16 07:20:00,
2013-03-16 03:25:00,29.4,19.8,29.79,NNE,17,4.0,8.0,67,0.00,,,0.00,Wunderground v.1.15,2013-03-16 07:25:00,
2013-03-16 03:35:00,29.2,19.6,29.80,NE,52,5.0,8.0,67,0.00,,,0.00,Wunderground v.1.15,2013-03-16 07:35:00,
2013-03-16 03:45:00,28.9,20.0,29.80,NNE,19,4.0,8.0,69,0.00,,,0.00,Wunderground v.1.15,2013-03-16 07:45:00,
2013-03-16 03:50:00,28.7,20.5,29.80,North,360,3.0,8.0,71,0.00,,,0.00,Wunderground v.1.15,2013-03-16 07:50:00,
2013-03-16 03:55:00,28.5,20.6,29.80,South,174,2.0,8.0,72,0.00,,,0.00,Wunderground v.1.15,2013-03-16 07:55:00,
2013-03-16 04:00:00,28.3,20.7,29.81,SSW,196,1.0,1.0,73,0.00,,,0.00,Wunderground v.1.15,2013-03-16 08:00:00,
2013-03-16 04:05:00,28.0,21.1,29.81,East,90,0.0,8.0,75,0.00,,,0.00,Wunderground v.1.15,2013-03-16 08:05:00,
2013-03-16 04:10:00,27.8,21.2,29.82,ENE,61,0.0,8.0,76,0.00,,,0.00,Wunderground v.1.15,2013-03-16 08:10:00,
2013-03-16 04:15:00,27.5,21.2,29.82,ENE,62,1.0,8.0,77,0.00,,,0.00,Wunderground v.1.15,2013-03-16 08:15:00,
2013-03-16 04:20:00,27.4,21.4,29.82,NE,53,2.0,2.0,78,0.00,,,0.00,Wunderground v.1.15,2013-03-16 08:20:00,
2013-03-16 04:30:00,27.0,20.7,29.83,NNW,338,3.0,3.0,77,0.00,,,0.00,Wunderground v.1.15,2013-03-16 08:30:00,
2013-03-16 04:35:00,26.7,20.1,29.83,NNE,18,3.0,4.0,76,0.00,,,0.00,Wunderground v.1.15,2013-03-16 08:35:00,
2013-03-16 04:40:00,26.6,19.7,29.82,NNE,28,4.0,4.0,75,0.00,,,0.00,Wunderground v.1.15,2013-03-16 08:40:00,
2013-03-16 04:45:00,26.6,19.4,29.82,ENE,63,5.0,7.0,74,0.00,,,0.00,Wunderground v.1.15,2013-03-16 08:45:00,
2013-03-16 04:50:00,26.5,19.3,29.82,NNE,23,5.0,8.0,74,0.00,,,0.00,Wunderground v.1.15,2013-03-16 08:50:00,
2013-03-16 04:55:00,26.3,19.1,29.83,NNW,346,4.0,8.0,74,0.00,,,0.00,Wunderground v.1.15,2013-03-16 08:55:00,
2013-03-16 05:00:00,26.2,19.0,29.83,ENE,69,3.0,8.0,74,0.00,,,0.00,Wunderground v.1.15,2013-03-16 09:00:00,
2013-03-16 05:10:00,26.1,18.9,29.83,ENE,61,3.0,8.0,74,0.00,,,0.00,Wunderground v.1.15,2013-03-16 09:10:00,
2013-03-16 05:15:00,26.1,18.9,29.83,NNE,24,3.0,8.0,74,0.00,,,0.00,Wunderground v.1.15,2013-03-16 09:15:00,
2013-03-16 05:20:00,26.0,18.8,29.83,NE,52,3.0,3.0,74,0.00,,,0.00,Wunderground v.1.15,2013-03-16 09:20:00,
2013-03-16 05:25:00,25.9,18.7,29.83,ENE,59,3.0,8.0,74,0.00,,,0.00,Wunderground v.1.15,2013-03-16 09:25:00,
2013-03-16 05:30:00,25.8,18.7,29.83,NNE,17,4.0,4.0,74,0.00,,,0.00,Wunderground v.1.15,2013-03-16 09:30:00,
2013-03-16 05:35:00,25.7,18.6,29.83,NNE,24,4.0,8.0,74,0.00,,,0.00,Wunderground v.1.15,2013-03-16 09:35:00,
2013-03-16 05:40:00,25.6,18.5,29.83,ENE,61,3.0,3.0,74,0.00,,,0.00,Wunderground v.1.15,2013-03-16 09:40:00,
2013-03-16 05:45:00,25.5,18.4,29.83,NE,37,1.0,8.0,74,0.00,,,0.00,Wunderground v.1.15,2013-03-16 09:45:00,
2013-03-16 05:55:00,25.3,18.2,29.83,ENE,75,2.0,8.0,74,0.00,,,0.00,Wunderground v.1.15,2013-03-16 09:55:00,
2013-03-16 06:05:00,25.1,18.0,29.84,ENE,68,2.0,3.0,74,0.00,,,0.00,Wunderground v.1.15,2013-03-16 10:05:00,
2013-03-16 06:10:00,25.1,18.0,29.85,NE,41,2.0,8.0,74,0.00,,,0.00,Wunderground v.1.15,2013-03-16 10:10:00,
2013-03-16 06:15:00,24.9,17.8,29.85,NE,46,2.0,8.0,74,0.00,,,0.00,Wunderground v.1.15,2013-03-16 10:15:00,
2013-03-16 06:20:00,24.8,17.7,29.85,NE,56,3.0,3.0,74,0.00,,,0.00,Wunderground v.1.15,2013-03-16 10:20:00,
2013-03-16 06:25:00,24.7,17.9,29.84,North,9,3.0,5.0,75,0.00,,,0.00,Wunderground v.1.15,2013-03-16 10:25:00,
2013-03-16 06:30:00,24.5,17.7,29.85,NNE,33,3.0,3.0,75,0.00,,,0.00,Wunderground v.1.15,2013-03-16 10:30:00,
2013-03-16 06:35:00,24.4,17.6,29.85,ENE,57,2.0,8.0,75,0.00,,,0.00,Wunderground v.1.15,2013-03-16 10:35:00,
2013-03-16 06:40:00,24.3,17.5,29.85,ESE,115,1.0,1.0,75,0.00,,,0.00,Wunderground v.1.15,2013-03-16 10:40:00,
2013-03-16 06:50:00,24.2,17.4,29.86,ESE,111,0.0,8.0,75,0.00,,,0.00,Wunderground v.1.15,2013-03-16 10:50:00,
2013-03-16 06:55:00,24.2,17.4,29.86,ESE,111,0.0,8.0,75,0.00,,,0.00,Wunderground v.1.15,2013-03-16 10:55:00,
2013-03-16 07:00:00,24.0,17.5,29.86,ESE,111,0.0,8.0,76,0.00,,,0.00,Wunderground v.1.15,2013-03-16 11:00:00,
2013-03-16 07:05:00,23.9,17.4,29.86,NNE,12,0.0,8.0,76,0.00,,,0.00,Wunderground v.1.15,2013-03-16 11:05:00,
2013-03-16 07:10:00,23.8,17.3,29.86,North,351,0.0,8.0,76,0.00,,,0.00,Wunderground v.1.15,2013-03-16 11:10:00,
2013-03-16 07:15:00,23.8,17.3,29.86,North,5,0.0,8.0,76,0.00,,,0.00,Wunderground v.1.15,2013-03-16 11:15:00,
2013-03-16 07:20:00,23.6,17.1,29.87,North,5,0.0,8.0,76,0.00,,,0.00,Wunderground v.1.15,2013-03-16 11:20:00,
2013-03-16 07:30:00,23.5,17.0,29.87,East,87,0.0,8.0,76,0.00,,,0.00,Wunderground v.1.15,2013-03-16 11:30:00,
2013-03-16 07:40:00,23.8,17.0,29.87,NNE,23,1.0,1.0,75,0.00,,,0.00,Wunderground v.1.15,2013-03-16 11:40:00,
2013-03-16 07:45:00,23.9,17.1,29.87,ENE,72,1.0,3.0,75,0.00,,,0.00,Wunderground v.1.15,2013-03-16 11:45:00,
2013-03-16 07:50:00,24.1,17.0,29.87,ENE,62,2.0,8.0,74,0.00,,,0.00,Wunderground v.1.15,2013-03-16 11:50:00,
2013-03-16 07:55:00,24.3,17.2,29.87,NE,55,2.0,8.0,74,0.00,,,0.00,Wunderground v.1.15,2013-03-16 11:55:00,
2013-03-16 08:00:00,24.5,17.4,29.87,East,87,1.0,8.0,74,0.00,,,0.00,Wunderground v.1.15,2013-03-16 12:00:00,
2013-03-16 08:05:00,24.8,18.0,29.87,NNE,13,1.0,8.0,75,0.00,,,0.00,Wunderground v.1.15,2013-03-16 12:05:00,
2013-03-16 08:10:00,25.1,17.7,29.87,East,92,1.0,8.0,73,0.00,,,0.00,Wunderground v.1.15,2013-03-16 12:10:00,
2013-03-16 08:15:00,25.3,17.9,29.87,ENE,58,2.0,8.0,73,0.00,,,0.00,Wunderground v.1.15,2013-03-16 12:15:00,
2013-03-16 08:25:00,25.8,17.7,29.88,NE,42,1.0,8.0,71,0.00,,,0.00,Wunderground v.1.15,2013-03-16 12:25:00,
2013-03-16 08:30:00,26.2,17.7,29.88,NE,37,1.0,8.0,70,0.00,,,0.00,Wunderground v.1.15,2013-03-16 12:30:00,
2013-03-16 08:35:00,26.5,17.7,29.88,NE,44,2.0,8.0,69,0.00,,,0.00,Wunderground v.1.15,2013-03-16 12:35:00,
2013-03-16 08:40:00,26.7,17.2,29.88,ENE,72,3.0,3.0,67,0.00,,,0.00,Wunderground v.1.15,2013-03-16 12:40:00,
2013-03-16 08:45:00,26.9,17.0,29.88,NNE,33,3.0,8.0,66,0.00,,,0.00,Wunderground v.1.15,2013-03-16 12:45:00,
2013-03-16 08:50:00,27.2,16.3,29.88,ENE,71,3.0,8.0,63,0.00,,,0.00,Wunderground v.1.15,2013-03-16 12:50:00,
2013-03-16 09:00:00,27.0,15.3,29.88,East,82,5.0,8.0,61,0.00,,,0.00,Wunderground v.1.15,2013-03-16 13:00:00,
2013-03-16 09:05:00,26.8,14.8,29.88,NE,49,5.0,8.0,60,0.00,,,0.00,Wunderground v.1.15,2013-03-16 13:05:00,
2013-03-16 09:10:00,26.9,14.9,29.87,ENE,70,5.0,5.0,60,0.00,,,0.00,Wunderground v.1.15,2013-03-16 13:10:00,
2013-03-16 09:15:00,27.1,15.8,29.87,NNE,22,3.0,8.0,62,0.00,,,0.00,Wunderground v.1.15,2013-03-16 13:15:00,
2013-03-16 09:20:00,27.5,15.8,29.88,ENE,59,2.0,8.0,61,0.00,,,0.00,Wunderground v.1.15,2013-03-16 13:20:00,
2013-03-16 09:25:00,27.2,15.1,29.88,NNE,19,4.0,8.0,60,0.00,,,0.00,Wunderground v.1.15,2013-03-16 13:25:00,
2013-03-16 09:30:00,27.4,15.3,29.87,NE,46,3.0,3.0,60,0.00,,,0.00,Wunderground v.1.15,2013-03-16 13:30:00,
2013-03-16 09:35:00,27.8,15.7,29.87,North,5,2.0,8.0,60,0.00,,,0.00,Wunderground v.1.15,2013-03-16 13:35:00,
2013-03-16 09:45:00,27.7,14.8,29.87,NE,55,3.0,8.0,58,0.00,,,0.00,Wunderground v.1.15,2013-03-16 13:45:00,
2013-03-16 09:50:00,27.5,14.6,29.88,North,360,3.0,8.0,58,0.00,,,0.00,Wunderground v.1.15,2013-03-16 13:50:00,
2013-03-16 09:55:00,27.6,15.1,29.87,North,355,1.0,8.0,59,0.00,,,0.00,Wunderground v.1.15,2013-03-16 13:55:00,
2013-03-16 10:00:00,27.8,14.9,29.87,NNW,344,2.0,8.0,58,0.00,,,0.00,Wunderground v.1.15,2013-03-16 14:00:00,
2013-03-16 10:05:00,28.2,15.3,29.87,NNW,331,3.0,8.0,58,0.00,,,0.00,Wunderground v.1.15,2013-03-16 14:05:00,
2013-03-16 10:10:00,28.5,15.2,29.87,NE,40,3.0,3.0,57,0.00,,,0.00,Wunderground v.1.15,2013-03-16 14:10:00,
2013-03-16 10:20:00,28.8,15.9,29.86,NE,56,2.0,8.0,58,0.00,,,0.00,Wunderground v.1.15,2013-03-16 14:20:00,
2013-03-16 10:25:00,29.4,16.4,29.86,North,355,2.0,8.0,58,0.00,,,0.00,Wunderground v.1.15,2013-03-16 14:25:00,
2013-03-16 10:30:00,29.6,15.4,29.87,NNE,26,3.0,3.0,55,0.00,,,0.00,Wunderground v.1.15,2013-03-16 14:30:00,
2013-03-16 10:35:00,30.1,16.7,29.87,NNW,339,3.0,8.0,57,0.00,,,0.00,Wunderground v.1.15,2013-03-16 14:35:00,
2013-03-16 10:40:00,30.8,16.1,29.86,ENE,61,2.0,8.0,54,0.00,,,0.00,Wunderground v.1.15,2013-03-16 14:40:00,
2013-03-16 10:45:00,31.3,17.0,29.86,West,265,2.0,8.0,55,0.00,,,0.00,Wunderground v.1.15,2013-03-16 14:45:00,
2013-03-16 10:50:00,31.7,16.1,29.86,ENE,58,2.0,8.0,52,0.00,,,0.00,Wunderground v.1.15,2013-03-16 14:50:00,
2013-03-16 11:00:00,30.2,16.0,29.85,East,81,4.0,8.0,55,0.00,,,0.00,Wunderground v.1.15,2013-03-16 15:00:00,
2013-03-16 11:05:00,30.4,16.6,29.85,ENE,69,2.0,8.0,56,0.00,,,0.00,Wunderground v.1.15,2013-03-16 15:05:00,
2013-03-16 11:10:00,30.8,16.5,29.85,NE,34,2.0,2.0,55,0.00,,,0.00,Wunderground v.1.15,2013-03-16 15:10:00,
2013-03-16 11:15:00,31.2,16.5,29.84,North,5,2.0,8.0,54,0.00,,,0.00,Wunderground v.1.15,2013-03-16 15:15:00,
2013-03-16 11:20:00,31.4,16.2,29.84,ENE,65,3.0,8.0,53,0.00,,,0.00,Wunderground v.1.15,2013-03-16 15:20:00,
2013-03-16 11:25:00,31.3,15.7,29.84,East,89,4.0,8.0,52,0.00,,,0.00,Wunderground v.1.15,2013-03-16 15:25:00,
2013-03-16 11:30:00,31.9,16.7,29.84,North,360,3.0,3.0,53,0.00,,,0.00,Wunderground v.1.15,2013-03-16 15:30:00,
2013-03-16 11:40:00,32.9,15.8,29.84,NNE,29,3.0,8.0,49,0.00,,,0.00,Wunderground v.1.15,2013-03-16 15:40:00,
2013-03-16 11:50:00,33.2,16.5,29.84,ENE,60,3.0,8.0,50,0.00,,,0.00,Wunderground v.1.15,2013-03-16 15:50:00,
2013-03-16 11:55:00,33.0,16.8,29.83,ENE,62,3.0,8.0,51,0.00,,,0.00,Wunderground v.1.15,2013-03-16 15:55:00,
2013-03-16 12:00:00,33.2,16.5,29.84,East,91,3.0,8.0,50,0.00,,,0.00,Wunderground v.1.15,2013-03-16 16:00:00,
2013-03-16 12:05:00,33.1,16.5,29.83,ENE,63,3.0,8.0,50,0.00,,,0.00,Wunderground v.1.15,2013-03-16 16:05:00,
2013-03-16 12:10:00,32.9,15.8,29.83,ESE,120,3.0,3.0,49,0.00,,,0.00,Wunderground v.1.15,2013-03-16 16:10:00,
2013-03-16 12:15:00,33.3,16.6,29.83,NE,35,2.0,4.0,50,0.00,,,0.00,Wunderground v.1.15,2013-03-16 16:15:00,
2013-03-16 12:20:00,33.1,16.0,29.83,NE,34,2.0,8.0,49,0.00,,,0.00,Wunderground v.1.15,2013-03-16 16:20:00,
2013-03-16 12:25:00,32.9,16.7,29.83,NW,323,3.0,8.0,51,0.00,,,0.00,Wunderground v.1.15,2013-03-16 16:25:00,
2013-03-16 12:35:00,33.6,16.9,29.82,North,360,2.0,8.0,50,0.00,,,0.00,Wunderground v.1.15,2013-03-16 16:35:00,
2013-03-16 12:40:00,33.2,15.6,29.82,North,355,3.0,3.0,48,0.00,,,0.00,Wunderground v.1.15,2013-03-16 16:40:00,
2013-03-16 12:45:00,33.5,15.9,29.82,NE,42,2.0,4.0,48,0.00,,,0.00,Wunderground v.1.15,2013-03-16 16:45:00,
2013-03-16 12:50:00,33.3,15.7,29.82,North,360,2.0,2.0,48,0.00,,,0.00,Wunderground v.1.15,2013-03-16 16:50:00,
2013-03-16 12:55:00,33.2,16.5,29.83,NNW,345,2.0,8.0,50,0.00,,,0.00,Wunderground v.1.15,2013-03-16 16:55:00,
2013-03-16 13:00:00,33.2,15.6,29.83,NNE,15,1.0,8.0,48,0.00,,,0.00,Wunderground v.1.15,2013-03-16 17:00:00,
2013-03-16 13:10:00,32.9,15.8,29.83,West,278,2.0,2.0,49,0.00,,,0.00,Wunderground v.1.15,2013-03-16 17:10:00,
2013-03-16 13:15:00,32.9,15.3,29.82,North,5,2.0,8.0,48,0.00,,,0.00,Wunderground v.1.15,2013-03-16 17:15:00,
2013-03-16 13:20:00,33.0,16.4,29.82,NE,47,1.0,8.0,50,0.00,,,0.00,Wunderground v.1.15,2013-03-16 17:20:00,
2013-03-16 13:25:00,33.1,16.0,29.82,NE,55,1.0,8.0,49,0.00,,,0.00,Wunderground v.1.15,2013-03-16 17:25:00,
2013-03-16 13:30:00,33.2,15.1,29.82,SW,227,1.0,8.0,47,0.00,,,0.00,Wunderground v.1.15,2013-03-16 17:30:00,
2013-03-16 13:35:00,33.2,15.6,29.82,WNW,293,1.0,8.0,48,0.00,,,0.00,Wunderground v.1.15,2013-03-16 17:35:00,
2013-03-16 13:45:00,33.4,15.8,29.82,North,5,2.0,8.0,48,0.00,,,0.00,Wunderground v.1.15,2013-03-16 17:45:00,
2013-03-16 13:50:00,33.4,15.3,29.82,ENE,65,2.0,8.0,47,0.00,,,0.00,Wunderground v.1.15,2013-03-16 17:50:00,
2013-03-16 13:55:00,33.0,14.9,29.82,NE,55,2.0,8.0,47,0.00,,,0.00,Wunderground v.1.15,2013-03-16 17:55:00,
2013-03-16 14:00:00,33.0,15.9,29.82,NE,55,1.0,8.0,49,0.00,,,0.00,Wunderground v.1.15,2013-03-16 18:00:00,
2013-03-16 14:05:00,33.0,15.4,29.82,ENE,57,1.0,8.0,48,0.00,,,0.00,Wunderground v.1.15,2013-03-16 18:05:00,
2013-03-16 14:10:00,32.7,15.6,29.81,NE,35,2.0,2.0,49,0.00,,,0.00,Wunderground v.1.15,2013-03-16 18:10:00,
2013-03-16 14:20:00,33.1,16.5,29.81,NW,325,1.0,8.0,50,0.00,,,0.00,Wunderground v.1.15,2013-03-16 18:20:00,
2013-03-16 14:25:00,33.2,17.9,29.81,NW,320,1.0,8.0,53,0.00,,,0.00,Wunderground v.1.15,2013-03-16 18:25:00,
2013-03-16 14:35:00,32.9,18.9,29.82,WNW,294,2.0,8.0,56,0.00,,,0.00,Wunderground v.1.15,2013-03-16 18:35:00,
2013-03-16 14:40:00,32.5,18.9,29.82,NW,313,2.0,2.0,57,0.00,,,0.00,Wunderground v.1.15,2013-03-16 18:40:00,
2013-03-16 14:45:00,32.0,18.9,29.82,SW,230,2.0,5.0,58,0.00,,,0.00,Wunderground v.1.15,2013-03-16 18:45:00,
2013-03-16 14:50:00,31.9,19.2,29.82,WNW,293,3.0,8.0,59,0.00,,,0.00,Wunderground v.1.15,2013-03-16 18:50:00,
2013-03-16 14:55:00,32.1,19.0,29.82,WNW,299,2.0,8.0,58,0.00,,,0.00,Wunderground v.1.15,2013-03-16 18:55:00,
2013-03-16 15:00:00,32.2,19.5,29.81,SW,226,1.0,8.0,59,0.00,,,0.00,Wunderground v.1.15,2013-03-16 19:00:00,
2013-03-16 15:05:00,32.4,19.7,29.81,WNW,289,1.0,8.0,59,0.00,,,0.00,Wunderground v.1.15,2013-03-16 19:05:00,
2013-03-16 15:10:00,32.6,19.8,29.81,North,360,1.0,8.0,59,0.00,,,0.00,Wunderground v.1.15,2013-03-16 19:10:00,
2013-03-16 15:20:00,32.9,20.5,29.81,NNW,328,1.0,1.0,60,0.00,,,0.00,Wunderground v.1.15,2013-03-16 19:20:00,
2013-03-16 15:25:00,32.8,19.6,29.81,NE,40,1.0,8.0,58,0.00,,,0.00,Wunderground v.1.15,2013-03-16 19:25:00,
2013-03-16 15:30:00,32.5,20.1,29.80,NNE,17,1.0,8.0,60,0.00,,,0.00,Wunderground v.1.15,2013-03-16 19:30:00,
2013-03-16 15:35:00,32.6,20.6,29.81,NW,324,1.0,8.0,61,0.00,,,0.00,Wunderground v.1.15,2013-03-16 19:35:00,
2013-03-16 15:45:00,32.5,20.1,29.80,WNW,299,1.0,8.0,60,0.00,,,0.00,Wunderground v.1.15,2013-03-16 19:45:00,
2013-03-16 15:50:00,32.3,19.6,29.80,NW,304,1.0,1.0,59,0.00,,,0.00,Wunderground v.1.15,2013-03-16 19:50:00,
2013-03-16 16:00:00,32.2,19.9,29.79,WSW,238,2.0,2.0,60,0.00,,,0.00,Wunderground v.1.15,2013-03-16 20:00:00,
2013-03-16 16:05:00,32.3,20.3,29.79,WSW,252,1.0,8.0,61,0.00,,,0.00,Wunderground v.1.15,2013-03-16 20:05:00,
2013-03-16 16:10:00,32.5,20.9,29.80,WSW,257,1.0,8.0,62,0.00,,,0.00,Wunderground v.1.15,2013-03-16 20:10:00,
2013-03-16 16:15:00,32.5,20.5,29.79,NE,39,1.0,8.0,61,0.00,,,0.00,Wunderground v.1.15,2013-03-16 20:15:00,
2013-03-16 16:20:00,32.5,20.9,29.79,NE,49,1.0,8.0,62,0.00,,,0.00,Wunderground v.1.15,2013-03-16 20:20:00,
2013-03-16 16:25:00,32.3,21.1,29.79,NE,34,1.0,8.0,63,0.00,,,0.00,Wunderground v.1.15,2013-03-16 20:25:00,
2013-03-16 16:30:00,32.1,20.9,29.79,NNE,33,1.0,8.0,63,0.00,,,0.00,Wunderground v.1.15,2013-03-16 20:30:00,
2013-03-16 16:40:00,32.4,21.6,29.79,NNE,33,1.0,1.0,64,0.00,,,0.00,Wunderground v.1.15,2013-03-16 20:40:00,
2013-03-16 16:45:00,32.3,20.7,29.79,NE,51,2.0,4.0,62,0.00,,,0.00,Wunderground v.1.15,2013-03-16 20:45:00,
2013-03-16 16:50:00,32.1,20.9,29.78,NNE,22,2.0,2.0,63,0.00,,,0.00,Wunderground v.1.15,2013-03-16 20:50:00,
2013-03-16 16:55:00,32.1,20.9,29.79,NW,311,2.0,8.0,63,0.00,,,0.00,Wunderground v.1.15,2013-03-16 20:55:00,
2013-03-16 17:00:00,32.1,20.2,29.78,ESE,109,1.0,8.0,61,0.00,,,0.00,Wunderground v.1.15,2013-03-16 21:00:00,
2013-03-16 17:05:00,32.1,20.5,29.78,ENE,61,1.0,8.0,62,0.00,,,0.00,Wunderground v.1.15,2013-03-16 21:05:00,
2013-03-16 17:10:00,32.2,20.6,29.78,NE,34,0.0,8.0,62,0.00,,,0.00,Wunderground v.1.15,2013-03-16 21:10:00,
2013-03-16 17:20:00,32.1,20.2,29.79,ENE,62,1.0,1.0,61,0.00,,,0.00,Wunderground v.1.15,2013-03-16 21:20:00,
2013-03-16 17:30:00,31.9,20.3,29.80,North,355,0.0,8.0,62,0.00,,,0.00,Wunderground v.1.15,2013-03-16 21:30:00,
2013-03-16 17:35:00,31.9,20.7,29.80,North,355,0.0,8.0,63,0.00,,,0.00,Wunderground v.1.15,2013-03-16 21:35:00,
2013-03-16 17:40:00,31.8,20.6,29.79,North,355,0.0,8.0,63,0.00,,,0.00,Wunderground v.1.15,2013-03-16 21:40:00,
2013-03-16 17:45:00,31.7,20.5,29.79,ENE,59,0.0,8.0,63,0.00,,,0.00,Wunderground v.1.15,2013-03-16 21:45:00,
2013-03-16 17:50:00,31.5,20.3,29.80,ENE,61,1.0,1.0,63,0.00,,,0.00,Wunderground v.1.15,2013-03-16 21:50:00,
2013-03-16 17:55:00,31.4,20.6,29.80,NE,51,1.0,8.0,64,0.00,,,0.00,Wunderground v.1.15,2013-03-16 21:55:00,
2013-03-16 18:00:00,31.4,21.0,29.80,NE,51,0.0,8.0,65,0.00,,,0.00,Wunderground v.1.15,2013-03-16 22:00:00,
2013-03-16 18:05:00,31.4,21.0,29.80,NE,51,0.0,8.0,65,0.00,,,0.00,Wunderground v.1.15,2013-03-16 22:05:00,
2013-03-16 18:15:00,31.1,21.4,29.80,NNE,28,1.0,8.0,67,0.00,,,0.00,Wunderground v.1.15,2013-03-16 22:15:00,
2013-03-16 18:20:00,31.1,21.4,29.81,NNE,28,1.0,1.0,67,0.00,,,0.00,Wunderground v.1.15,2013-03-16 22:20:00,
2013-03-16 18:25:00,31.0,21.3,29.81,NE,37,0.0,8.0,67,0.00,,,0.00,Wunderground v.1.15,2013-03-16 22:25:00,
2013-03-16 18:30:00,30.9,21.9,29.81,NE,37,0.0,8.0,69,0.00,,,0.00,Wunderground v.1.15,2013-03-16 22:30:00,
2013-03-16 18:35:00,30.8,21.8,29.81,NNE,27,0.0,8.0,69,0.00,,,0.00,Wunderground v.1.15,2013-03-16 22:35:00,
2013-03-16 18:40:00,30.7,22.4,29.81,North,360,0.0,8.0,71,0.00,,,0.00,Wunderground v.1.15,2013-03-16 22:40:00,
2013-03-16 18:45:00,30.6,22.6,29.81,North,360,0.0,8.0,72,0.00,,,0.00,Wunderground v.1.15,2013-03-16 22:45:00,
2013-03-16 18:55:00,30.4,23.1,29.82,North,360,0.0,8.0,74,0.00,,,0.00,Wunderground v.1.15,2013-03-16 22:55:00,
2013-03-16 19:00:00,30.4,23.1,29.82,North,360,0.0,8.0,74,0.00,,,0.00,Wunderground v.1.15,2013-03-16 23:00:00,
2013-03-16 19:05:00,30.3,23.0,29.82,North,360,0.0,8.0,74,0.00,,,0.00,Wunderground v.1.15,2013-03-16 23:05:00,
2013-03-16 19:10:00,30.3,23.3,29.82,North,360,0.0,8.0,75,0.00,,,0.00,Wunderground v.1.15,2013-03-16 23:10:00,
2013-03-16 19:15:00,30.2,23.5,29.82,North,360,0.0,8.0,76,0.00,,,0.00,Wunderground v.1.15,2013-03-16 23:15:00,
2013-03-16 19:20:00,30.1,23.8,29.83,North,360,0.0,8.0,77,0.00,,,0.00,Wunderground v.1.15,2013-03-16 23:20:00,
2013-03-16 19:25:00,30.0,24.3,29.82,North,360,0.0,8.0,79,0.00,,,0.00,Wunderground v.1.15,2013-03-16 23:25:00,
2013-03-16 19:35:00,29.8,24.1,29.82,North,5,0.0,8.0,79,0.00,,,0.00,Wunderground v.1.15,2013-03-16 23:35:00,
2013-03-16 19:40:00,29.8,24.4,29.83,North,360,0.0,8.0,80,0.00,,,0.00,Wunderground v.1.15,2013-03-16 23:40:00,
2013-03-16 19:45:00,29.7,24.6,29.83,NE,45,1.0,8.0,81,0.00,,,0.00,Wunderground v.1.15,2013-03-16 23:45:00,
2013-03-16 19:50:00,29.6,24.8,29.83,NNE,25,1.0,1.0,82,0.00,,,0.00,Wunderground v.1.15,2013-03-16 23:50:00,
2013-03-16 19:55:00,29.4,24.9,29.84,NNE,18,0.0,8.0,83,0.00,,,0.00,Wunderground v.1.15,2013-03-16 23:55:00,
2013-03-16 20:00:00,29.4,25.2,29.84,North,5,0.0,8.0,84,0.00,,,0.00,Wunderground v.1.15,2013-03-17 00:00:00,
2013-03-16 20:05:00,29.4,25.2,29.83,North,5,0.0,8.0,84,0.00,,,0.00,Wunderground v.1.15,2013-03-17 00:05:00,
2013-03-16 20:10:00,29.4,25.4,29.84,North,5,0.0,8.0,85,0.00,,,0.00,Wunderground v.1.15,2013-03-17 00:10:00,
2013-03-16 20:15:00,29.3,25.4,29.84,NE,54,0.0,8.0,85,0.00,,,0.00,Wunderground v.1.15,2013-03-17 00:15:00,
2013-03-16 20:25:00,29.2,25.3,29.85,NE,43,0.0,8.0,85,0.00,,,0.00,Wunderground v.1.15,2013-03-17 00:25:00,
2013-03-16 20:30:00,29.1,25.4,29.84,North,355,0.0,8.0,86,0.00,,,0.00,Wunderground v.1.15,2013-03-17 00:30:00,
2013-03-16 20:35:00,29.0,25.3,29.84,North,355,0.0,8.0,86,0.00,,,0.00,Wunderground v.1.15,2013-03-17 00:35:00,
2013-03-16 20:40:00,29.0,25.3,29.85,North,355,0.0,8.0,86,0.00,,,0.00,Wunderground v.1.15,2013-03-17 00:40:00,
2013-03-16 20:45:00,28.9,25.2,29.85,NNE,16,0.0,8.0,86,0.00,,,0.00,Wunderground v.1.15,2013-03-17 00:45:00,
2013-03-16 20:50:00,28.8,25.1,29.85,NNE,30,0.0,8.0,86,0.00,,,0.00,Wunderground v.1.15,2013-03-17 00:50:00,
2013-03-16 20:55:00,28.7,25.3,29.85,NNE,30,1.0,8.0,87,0.00,,,0.00,Wunderground v.1.15,2013-03-17 00:55:00,
2013-03-16 21:05:00,28.6,25.2,29.85,NNE,32,1.0,2.0,87,0.00,,,0.00,Wunderground v.1.15,2013-03-17 01:05:00,
2013-03-16 21:10:00,28.5,25.4,29.86,North,5,1.0,8.0,88,0.00,,,0.00,Wunderground v.1.15,2013-03-17 01:10:00,
2013-03-16 21:15:00,28.5,25.4,29.86,NNE,32,1.0,8.0,88,0.00,,,0.00,Wunderground v.1.15,2013-03-17 01:15:00,
2013-03-16 21:20:00,28.4,25.3,29.86,NNE,32,1.0,1.0,88,0.00,,,0.00,Wunderground v.1.15,2013-03-17 01:20:00,
2013-03-16 21:25:00,28.5,25.4,29.86,NNE,32,0.0,8.0,88,0.00,,,0.00,Wunderground v.1.15,2013-03-17 01:25:00,
2013-03-16 21:30:00,28.5,25.4,29.86,NNE,32,0.0,8.0,88,0.00,,,0.00,Wunderground v.1.15,2013-03-17 01:30:00,
2013-03-16 21:35:00,28.5,25.4,29.86,NNE,32,0.0,8.0,88,0.00,,,0.00,Wunderground v.1.15,2013-03-17 01:35:00,
2013-03-16 21:45:00,28.4,25.3,29.87,NNE,32,0.0,8.0,88,0.00,,,0.00,Wunderground v.1.15,2013-03-17 01:45:00,
2013-03-16 21:50:00,28.4,25.3,29.87,NNE,32,0.0,8.0,88,0.00,,,0.00,Wunderground v.1.15,2013-03-17 01:50:00,
2013-03-16 21:55:00,28.4,25.3,29.87,NNE,32,0.0,8.0,88,0.00,,,0.00,Wunderground v.1.15,2013-03-17 01:55:00,
2013-03-16 22:05:00,28.4,25.3,29.88,NNE,22,0.0,8.0,88,0.00,,,0.00,Wunderground v.1.15,2013-03-17 02:05:00,
2013-03-16 22:10:00,28.4,25.0,29.88,NNE,22,0.0,8.0,87,0.00,,,0.00,Wunderground v.1.15,2013-03-17 02:10:00,
2013-03-16 22:15:00,28.4,25.0,29.88,NNE,28,0.0,8.0,87,0.00,,,0.00,Wunderground v.1.15,2013-03-17 02:15:00,
2013-03-16 22:20:00,28.4,25.0,29.88,NNE,29,1.0,1.0,87,0.00,,,0.00,Wunderground v.1.15,2013-03-17 02:20:00,
2013-03-16 22:25:00,28.4,25.0,29.88,NNE,29,0.0,8.0,87,0.00,,,0.00,Wunderground v.1.15,2013-03-17 02:25:00,
2013-03-16 22:35:00,28.3,24.9,29.89,NNE,29,0.0,8.0,87,0.00,,,0.00,Wunderground v.1.15,2013-03-17 02:35:00,
2013-03-16 22:40:00,28.3,24.9,29.89,NNE,29,0.0,8.0,87,0.00,,,0.00,Wunderground v.1.15,2013-03-17 02:40:00,
2013-03-16 22:45:00,28.3,25.2,29.90,NNE,29,0.0,8.0,88,0.00,,,0.00,Wunderground v.1.15,2013-03-17 02:45:00,
2013-03-16 22:50:00,28.3,25.2,29.90,NNE,29,0.0,8.0,88,0.00,,,0.00,Wunderground v.1.15,2013-03-17 02:50:00,
2013-03-16 22:55:00,28.3,25.2,29.90,NNE,29,0.0,8.0,88,0.00,,,0.00,Wunderground v.1.15,2013-03-17 02:55:00,
2013-03-16 23:00:00,28.3,25.2,29.89,NNE,29,0.0,8.0,88,0.00,,,0.00,Wunderground v.1.15,2013-03-17 03:00:00,
2013-03-16 23:05:00,28.3,25.2,29.90,NNE,29,0.0,8.0,88,0.00,,,0.00,Wunderground v.1.15,2013-03-17 03:05:00,
2013-03-16 23:10:00,28.2,25.1,29.90,NNE,29,0.0,8.0,88,0.00,,,0.00,Wunderground v.1.15,2013-03-17 03:10:00,
2013-03-16 23:20:00,28.1,25.0,29.90,NNE,29,0.0,8.0,88,0.00,,,0.00,Wunderground v.1.15,2013-03-17 03:20:00,
2013-03-16 23:25:00,27.9,25.1,29.90,NNE,29,0.0,8.0,89,0.00,,,0.00,Wunderground v.1.15,2013-03-17 03:25:00,
2013-03-16 23:30:00,27.8,25.0,29.90,NNE,29,0.0,8.0,89,0.00,,,0.00,Wunderground v.1.15,2013-03-17 03:30:00,
2013-03-16 23:35:00,27.7,24.9,29.91,NNE,29,0.0,8.0,89,0.00,,,0.00,Wunderground v.1.15,2013-03-17 03:35:00,
2013-03-16 23:40:00,27.5,24.7,29.91,NNE,29,0.0,8.0,89,0.00,,,0.00,Wunderground v.1.15,2013-03-17 03:40:00,
2013-03-16 23:45:00,27.4,24.6,29.91,NNE,29,0.0,8.0,89,0.00,,,0.00,Wunderground v.1.15,2013-03-17 03:45:00,
2013-03-16 23:50:00,27.2,24.4,29.91,NNE,29,0.0,8.0,89,0.00,,,0.00,Wunderground v.1.15,2013-03-17 03:50:00,